Upstream stations:
SHEF ID: TIFM7 Elk River near Tiff City, Mo
STATION TYPE:
Regulating: Stage = 15.00, Flow = 21304
PRECIP STAGE STAGE(2) RIV-FLOW BAT-LOAD
in ft ft cfs volt
Ccp-Rev Ccp-Rev Ccp-Rev Ccp-Rev Ccp-Rev
(US/Central)
03/28 00:00 0.00 5.17 5.16 1352 11.75
03/28 01:00 0.00 5.16 5.15 1342 11.75
03/28 02:00 0.00 5.15 5.14 1333 11.71
03/28 03:00 0.00 5.13 5.14 1315 11.69
03/28 04:00 0.00 5.13 5.12 1315 11.69
03/28 05:00 0.00 5.12 5.10 1306 11.66
03/28 06:00 0.00 5.11 5.10 1297 11.65
03/28 07:00 0.00 5.10 5.09 1287 11.62
03/28 08:00 0.00 5.09 5.08 1278 11.66
03/28 09:00 0.00 5.08 5.07 1269 12.72
03/28 10:00 0.00 5.07 5.06 1260 12.77
03/28 11:00 0.00 5.06 5.06 1251 12.78
03/28 12:00 0.00 5.06 5.06 1251 12.77
03/28 13:00 0.00 5.05 5.03 1242 12.70
03/28 14:00 0.00 5.04 5.03 1233 12.67
03/28 15:00 0.00 5.04 5.03 1233 12.63
03/28 16:00 0.00 5.03 5.03 1224 12.57
03/28 17:00 0.00 5.02 5.01 1215 12.50
03/28 18:00 0.00 5.01 4.99 1206 12.44
03/28 19:00 0.00 5.00 4.98 1197 12.36
03/28 20:00 0.00 4.99 4.97 1189 12.05
03/28 21:00 0.00 4.98 4.96 1180 11.80
03/28 22:00 0.00 4.98 4.96 1180 11.74
03/28 23:00 0.00 4.97 4.95 1172 11.71